Location: Newark
(51.0000°N, 11.4100°E)
Time: 22:53:17
(UTC+00:00)

Altair - Visible Passes

Search period start: 17 November 2019 00:00
Search period end: 27 November 2019 00:00
Orbit: 1502 x 1682 km, 47.2° (Epoch: 17 November)

Date Brightness Start Highest point End Pass type
(mag) Time Alt. Az. Time Alt. Az. Time Alt. Az.
17 Nov 9.3 00:59:28 15° ESE 00:59:28 15° ESE 01:02:16 10° E visible
17 Nov 8.0 02:57:30 38° S 02:59:51 45° SSE 03:08:26 10° E visible
17 Nov 7.6 04:55:32 14° WSW 05:03:43 70° S 05:13:02 10° E visible
18 Nov 9.5 00:35:56 11° E 00:35:56 11° E 00:36:43 10° E visible
18 Nov 8.0 02:33:58 42° SSE 02:34:47 42° SSE 02:43:15 10° E visible
18 Nov 7.6 04:32:01 21° WSW 04:38:36 69° S 04:47:52 10° E visible
19 Nov 8.2 02:10:24 40° SE 02:10:24 40° SE 02:18:04 10° E visible
19 Nov 7.6 04:08:26 30° WSW 04:13:28 68° S 04:22:42 10° E visible
20 Nov 8.5 01:46:47 34° ESE 01:46:47 34° ESE 01:52:53 10° E visible
20 Nov 7.5 03:44:49 41° SW 03:48:21 66° SSE 03:57:32 10° E visible
20 Nov 7.7 05:43:31 10° W 05:52:36 68° SSW 06:01:55 10° ESE visible
21 Nov 8.8 01:23:07 27° ESE 01:23:07 27° ESE 01:27:41 10° E visible
21 Nov 7.5 03:21:09 53° SW 03:23:14 65° SSE 03:32:22 10° E visible
21 Nov 7.7 05:19:11 13° W 05:27:28 69° S 05:36:47 10° ESE visible
22 Nov 9.1 00:59:27 21° E 00:59:27 21° E 01:02:29 10° E visible
22 Nov 7.4 02:57:28 62° S 02:58:08 63° SSE 03:07:13 10° E visible
22 Nov 7.6 04:55:29 20° W 05:02:21 70° S 05:11:38 10° ESE visible
23 Nov 9.4 00:35:43 15° E 00:35:43 15° E 00:37:15 10° E visible
23 Nov 7.6 02:33:45 60° SE 02:33:45 60° SE 02:42:03 10° E visible
23 Nov 7.5 04:31:46 28° W 04:37:13 70° S 04:46:29 10° ESE visible
24 Nov 9.7 00:12:00 10° E 00:12:00 10° E 00:12:02 10° E visible
24 Nov 7.9 02:10:02 49° ESE 02:10:02 49° ESE 02:16:54 10° E visible
24 Nov 7.5 04:08:03 38° WSW 04:12:05 71° S 04:21:20 10° ESE visible
24 Nov 8.0 06:07:24 10° W 06:16:06 49° SSW 06:24:59 10° SE visible
25 Nov 8.3 01:46:17 38° ESE 01:46:17 38° ESE 01:51:45 10° E visible
25 Nov 7.4 03:44:19 50° WSW 03:46:58 71° S 03:56:11 10° ESE visible
25 Nov 7.9 05:42:20 10° W 05:51:00 51° SSW 05:59:56 10° SE visible
26 Nov 8.7 01:22:33 29° E 01:22:33 29° E 01:26:36 10° E visible
26 Nov 7.3 03:20:34 64° SW 03:21:50 72° S 03:31:03 10° E visible
26 Nov 7.8 05:18:35 16° W 05:25:55 53° SSW 05:34:53 10° SE visible
